Weather History for Ardmore, OK

Change the Weather History Date:

Monday, January 21, 2013

  Actual Average Record
Temperature  
Mean Temperature 41 °F -  
Max Temperature 50 °F 51 °F 78 °F (2005)
Min Temperature 32 °F 32 °F 14 °F (2011)
Degree Days  
Heating Degree Days 24    
Moisture  
Dew Point 26 °F    
Average Humidity 62    
Maximum Humidity 76    
Minimum Humidity 35    
Precipitation  
Precipitation 0.00 in - - ()
Sea Level Pressure  
Sea Level Pressure 30.25 in    
Wind  
Wind Speed 11 mph (NNE)    
Max Wind Speed 16 mph    
Max Gust Speed 23 mph    
Visibility 10 miles    
Events      
Averages and records for this station are not official NWS values.
T = Trace of Precipitation, MM = Missing Value Source: NWS Daily Summary

Daily Weather History Graph

Daily Weather History Graph

Search for Another Location

Airport:

Trip Planner

Search our weather history database for the weather conditions in past years. The results will help you decide how hot, cold, wet, or windy it might be!

Date:

Astronomy

Jan. 21, 2013 Rise Set
Actual Time 7:31 AM CST 5:47 PM CST
Civil Twilight 7:04 AM CST 6:14 PM CST
Nautical Twilight 6:34 AM CST 6:44 PM CST
Astronomical Twilight 6:04 AM CST 7:14 PM CST
Moon 1:29 PM CST (1/21) 3:00 AM CST (1/21)
Length of Visible Light 11h 09m
Length of Day
10h 15m
Waxing Gibbous, 75% of the Moon is Illuminated
Jan 21
Waxing Gibbous
Jan 26
Full
Feb 3
Last Quarter
Feb 10
New
Feb 17
First Quarter

Hourly Weather History & Observations

Time (CST) Temp. Windchill Dew Point Humidity Pressure Visibility Wind Dir Wind Speed Gust Speed Precip Events Conditions
12:15 AM 46.4 °F 41.1 °F 39.2 °F 76% 30.18 in 10.0 mi NNE 11.5 mph - N/A   Clear
12:35 AM 44.6 °F 38.4 °F 37.4 °F 76% 30.19 in 10.0 mi North 12.7 mph - N/A   Clear
12:55 AM 44.6 °F 38.8 °F 33.8 °F 66% 30.19 in 10.0 mi North 11.5 mph 16.1 mph N/A   Clear
1:15 AM 42.8 °F 36.2 °F 33.8 °F 70% 30.20 in 10.0 mi North 12.7 mph 17.3 mph N/A   Clear
1:35 AM 42.8 °F 36.6 °F 32.0 °F 66% 30.21 in 10.0 mi North 11.5 mph 19.6 mph N/A   Clear
1:55 AM 42.8 °F 35.4 °F 30.2 °F 61% 30.22 in 10.0 mi NNE 15.0 mph 21.9 mph N/A   Clear
2:15 AM 41.0 °F 32.8 °F 28.4 °F 61% 30.22 in 10.0 mi North 16.1 mph 23.0 mph N/A   Clear
2:35 AM 41.0 °F 33.1 °F 28.4 °F 61% 30.23 in 10.0 mi North 15.0 mph 20.7 mph N/A   Clear
2:55 AM 39.2 °F 30.8 °F 26.6 °F 61% 30.24 in 10.0 mi North 15.0 mph 21.9 mph N/A   Clear
3:15 AM 37.4 °F 29.8 °F 26.6 °F 65% 30.25 in 10.0 mi North 11.5 mph 16.1 mph N/A   Clear
3:35 AM 37.4 °F 29.8 °F 24.8 °F 60% 30.25 in 10.0 mi North 11.5 mph - N/A   Clear
3:55 AM 35.6 °F 27.1 °F 24.8 °F 65% 30.25 in 10.0 mi North 12.7 mph - N/A   Clear
4:15 AM 35.6 °F 27.1 °F 23.0 °F 60% 30.25 in 10.0 mi North 12.7 mph 19.6 mph N/A   Clear
4:35 AM 35.6 °F 29.9 °F 23.0 °F 60% 30.26 in 10.0 mi North 6.9 mph 16.1 mph N/A   Clear
4:55 AM 33.8 °F 24.8 °F 23.0 °F 65% 30.26 in 10.0 mi North 12.7 mph 17.3 mph N/A   Clear
5:15 AM 33.8 °F 25.8 °F 21.2 °F 60% 30.26 in 10.0 mi North 10.4 mph 16.1 mph N/A   Clear
5:35 AM 33.8 °F 26.4 °F 21.2 °F 60% 30.27 in 10.0 mi NNE 9.2 mph 17.3 mph N/A   Clear
4:55 PM 50.0 °F - 23.0 °F 35% 30.26 in 10.0 mi NE 5.8 mph - N/A   Clear
10:35 PM 33.8 °F 28.6 °F 21.2 °F 60% 30.30 in 10.0 mi NNE 5.8 mph - N/A   Clear
10:55 PM 32.0 °F - 21.2 °F 64% 30.30 in 10.0 mi Calm Calm - N/A   Clear
11:15 PM 33.8 °F - 21.2 °F 60% 30.30 in 10.0 mi Calm Calm - N/A   Clear
11:35 PM 33.8 °F 29.6 °F 21.2 °F 60% 30.29 in 10.0 mi NE 4.6 mph - N/A   Clear
11:55 PM 32.0 °F - 21.2 °F 64% 30.29 in 10.0 mi Calm Calm - N/A   Clear